Miscellaneous Local Product
Issued by NWS Hastings, NE

Home | Current Version | Previous Version | Text Only | Print | Product List | Glossary On
Versions: 1 2 3 4 5 6 7 8 9 10 11 12 13 14 15 16 17 18 19 20 21 22 23 24 25 26 27 28 29 30 31 32 33 34 35 36 37 38 39 40 41 42 43 44 45 46 47 48 49 50
000
AXUS43 KGID 260102
MISGRI

GID CWA HOURLY WEATHER ROUNDUP
NATIONAL WEATHER SERVICE HASTINGS NE
700 PM CST THU DEC 25 2014

NOTE: "FAIR" INDICATES FEW OR NO CLOUDS BELOW 12,000 FEET WITH NO
SIGNIFICANT WEATHER AND/OR OBSTRUCTIONS TO VISIBILITY.

...SOUTH CENTRAL NEBRASKA...

CITY           SKY/WX    TMP DP  RH WIND       PRES   REMARKS
GRAND ISLAND   CLEAR     29  24  82 N7        29.65R WCI  22
HASTINGS       CLEAR     33  25  72 N8        29.62R WCI  26
KEARNEY        PTCLDY    32  25  74 NW18      29.65R WCI  20
ORD            CLOUDY    32  28  85 N16       29.70R WCI  21
YORK           PTCLDY    32  28  86 N6        29.64R WCI  26
AURORA         CLEAR     31  27  84 N12       29.64R WCI  22
LEXINGTON      MOCLDY    32  28  86 N17G25    29.68R WCI  21
HOLDREGE       PTCLDY    32  27  80 N17G23    29.64R WCI  21
HEBRON         MOCLDY    35  28  76 CALM      29.62R

...NEBRASKA PANHANDLE...

CITY           SKY/WX    TMP DP  RH WIND       PRES   REMARKS
CHADRON        LGT SNOW  25  21  85 NE20      29.87R FOG     WCI  11
ALLIANCE       LGT SNOW  24  21  88 N22       29.78R FOG     WCI   9
SCOTTSBLUFF    LGT SNOW  25  21  85 N12       29.81R FOG     WCI  14
SIDNEY         LGT SNOW  25  22  88 NE23G31   29.75R FOG     WCI  10

...WESTERN AND NORTH CENTRAL NEBRASKA...

CITY           SKY/WX    TMP DP  RH WIND       PRES   REMARKS
VALENTINE      CLOUDY    26  23  88 N18G25    29.83R WCI  13
AINSWORTH      LGT SNOW  27  26  96 N18       29.79R WCI  13
ONEILL         CLOUDY    32  31  96 N17       29.74S WCI  21
BROKEN BOW     CLOUDY    31  27  85 N21G26    29.70R WCI  18
IMPERIAL       CLOUDY    31  25  78 NE21      29.68R WCI  18
NORTH PLATTE   CLOUDY    30  27  88 NE15      29.72R WCI  19
MCCOOK         CLEAR     31  26  82 N17       29.65R WCI  19

...EASTERN NEBRASKA...

CITY           SKY/WX    TMP DP  RH WIND       PRES   REMARKS
NORFOLK        MOCLDY    34  30  85 N8        29.68R WCI  27
SO SIOUX CITY  CLEAR     33  30  88 N9        29.70R WCI  25
TEKAMAH        PTCLDY    34  31  88 N7        29.68R WCI  28
COLUMBUS       CLEAR     30  25  80 N6        29.67R WCI  24
ALBION         CLOUDY    33  28  79 N10       29.68S WCI  25
OMAHA EPPLEY   MOCLDY    36  31  82 CALM      29.68R
OFFUTT AFB     CLOUDY    35  31  86 CALM      29.66R
MILLARD        CLOUDY    37  32  83 CALM      29.66R
LINCOLN        CLOUDY    34  27  75 NE3       29.66R
NEBRASKA CITY  CLOUDY    40  29  63 S7        29.67R
BEATRICE       CLOUDY    42  31  64 SE7       29.64R
FALLS CITY     MOCLDY    41  32  70 SE8       29.69R

...NORTHERN KANSAS...

CITY           SKY/WX    TMP DP  RH WIND       PRES   REMARKS
GOODLAND       CLEAR     31  27  85 N17       29.62R WCI  19
HILL CITY      MOCLDY    37  25  61 N15       29.60R WCI  28
NORTON         CLEAR     34  23  64 NW12      29.61R WCI  25
PHILLIPSBURG   CLEAR     41  27  56 NW12      29.60R
SMITH CENTER   CLEAR     37  27  65 N7        29.59R WCI  32
BELOIT         CLEAR     46  28  49 SE7       29.59R
HAYS           MOCLDY    46  25  42 SW9       29.58R
RUSSELL        MOCLDY    46  28  49 NW12      29.57R
CONCORDIA      MOCLDY    42  30  62 S7        29.60R
SALINA         MOCLDY    49  30  48 S12       29.61R
TOPEKA         MOCLDY    50  31  48 S12       29.71R



USA.gov is the U.S. government's official web portal to all federal, state and local government web resources and services.